Alexandria, LA

12:11 AM CDT on September 22, 2017 (GMT -0500)
Alexandria International

Weather History for KAEX - December, 2013

Change the Weather History Date:

Tuesday, December 24, 2013

  Actual Average Record
Temperature  
Mean Temperature 40 °F 50 °F  
Max Temperature 52 °F 59 °F 79 °F (2015)
Min Temperature 27 °F 40 °F 8 °F (1989)
Degree Days  
Heating Degree Days 25 16  
Month to date heating degree days 366 353  
Since 1 July heating degree days 742 678  
Moisture  
Dew Point 29 °F    
Average Humidity 67    
Maximum Humidity 92    
Minimum Humidity 41    
Precipitation  
Precipitation 0.00 in 0.16 in 2.94 in (1997)
Month to date precipitation 2.60 5.09  
Year to date precipitation 55.09 54.89  
Snow  
Snow 0.00 in - 0.00 in ()
Month to date snowfall 0.0  
Since 1 July snowfall 0.0  
Snow Depth 0.00 in    
Sea Level Pressure  
Sea Level Pressure 30.50 in    
Wind  
Wind Speed 3 mph (ENE)    
Max Wind Speed 9 mph    
Max Gust Speed 15 mph    
Visibility 10 miles    
Events      
T = Trace of Precipitation, MM = Missing Value Source: NWS Daily Summary

Daily Weather History Graph

Daily Weather History Graph

Search for Another Location

Airport or City:

Trip Planner

Search our weather history database for the weather conditions in past years. The results will help you decide how hot, cold, wet, or windy it might be!

Date:

Astronomy

Dec. 24, 2013 Rise Set
Actual Time 7:06 AM CST 5:13 PM CST
Civil Twilight 6:39 AM CST 5:40 PM CST
Nautical Twilight 6:09 AM CST 6:10 PM CST
Astronomical Twilight 5:39 AM CST 6:40 PM CST
Moon 11:56 PM CST (12/24) 11:24 AM CST (12/24)
Length of Visible Light 11h 00m
Length of Day
10h 06m
Waning Gibbous, 58% of the Moon is Illuminated
Dec 24
Waning Gibbous
Dec 25
Last Quarter
Jan 1
New
Jan 7
First Quarter
Jan 15
Full

Hourly Weather History & Observations

Time (CST) Temp. Windchill Dew Point Humidity Pressure Visibility Wind Dir Wind Speed Gust Speed Precip Events Conditions
12:53 AM 32.0 °F 27.5 °F 28.9 °F 88% 30.53 in 10.0 mi NE 4.6 mph - N/A   Clear
1:53 AM 32.0 °F 28.7 °F 28.0 °F 85% 30.53 in 10.0 mi NE 3.5 mph - N/A   Clear
2:53 AM 30.0 °F - 27.0 °F 88% 30.53 in 10.0 mi Calm Calm - N/A   Clear
3:53 AM 28.9 °F - 27.0 °F 92% 30.55 in 9.0 mi Calm Calm - N/A   Clear
4:53 AM 28.9 °F - 27.0 °F 92% 30.55 in 8.0 mi Calm Calm - N/A   Clear
5:53 AM 28.9 °F 23.9 °F 27.0 °F 92% 30.55 in 9.0 mi North 4.6 mph - N/A   Clear
6:53 AM 28.9 °F - 26.1 °F 89% 30.56 in 10.0 mi Calm Calm - N/A   Clear
7:53 AM 30.0 °F - 28.0 °F 92% 30.58 in 8.0 mi Calm Calm - N/A   Clear
8:53 AM 36.0 °F 33.3 °F 30.0 °F 79% 30.59 in 10.0 mi Variable 3.5 mph - N/A   Clear
9:53 AM 39.9 °F 33.9 °F 30.0 °F 68% 30.59 in 10.0 mi NE 9.2 mph - N/A   Clear
10:53 AM 42.1 °F 38.4 °F 28.0 °F 58% 30.58 in 10.0 mi East 5.8 mph - N/A   Clear
11:53 AM 45.0 °F 42.6 °F 28.9 °F 53% 30.55 in 10.0 mi NE 4.6 mph - N/A   Clear
12:53 PM 46.9 °F - 28.9 °F 50% 30.51 in 10.0 mi Variable 4.6 mph - N/A   Clear
1:53 PM 48.9 °F - 28.9 °F 46% 30.48 in 10.0 mi East 5.8 mph - N/A   Clear
2:53 PM 51.1 °F - 28.9 °F 43% 30.45 in 10.0 mi NE 5.8 mph - N/A   Clear
3:53 PM 50.0 °F - 30.0 °F 46% 30.44 in 10.0 mi Variable 3.5 mph - N/A   Clear
4:53 PM 48.9 °F - 30.0 °F 48% 30.44 in 10.0 mi NNE 3.5 mph - N/A   Clear
5:53 PM 42.1 °F 40.2 °F 32.0 °F 67% 30.44 in 10.0 mi NE 3.5 mph - N/A   Clear
6:53 PM 42.1 °F 39.2 °F 30.9 °F 65% 30.44 in 10.0 mi ENE 4.6 mph - N/A   Clear
7:53 PM 39.0 °F 36.8 °F 30.9 °F 73% 30.44 in 10.0 mi ESE 3.5 mph - N/A   Clear
8:53 PM 37.0 °F 34.5 °F 30.9 °F 79% 30.43 in 10.0 mi East 3.5 mph - N/A   Clear
9:53 PM 37.9 °F 35.5 °F 30.0 °F 73% 30.40 in 10.0 mi East 3.5 mph - N/A   Clear
10:53 PM 35.1 °F 32.2 °F 28.9 °F 78% 30.40 in 10.0 mi SE 3.5 mph - N/A   Clear
11:53 PM 34.0 °F - 28.9 °F 82% 30.38 in 10.0 mi Calm Calm - N/A   Clear